Wolf Creek Pass, CO

12:53 AM MST on December 11, 2017 (GMT -0700)
Wolf Creek Pass

Weather History for KCPW - January, 2013

Change the Weather History Date:

Sunday, January 6, 2013

  Actual Average (KALS) Record (KALS)
Temperature  
Mean Temperature 22 °F -  
Max Temperature 28 °F 30 °F 53 °F (1956)
Min Temperature 15 °F -5 °F -40 °F (1971)
Degree Days  
Heating Degree Days 44    
Moisture  
Dew Point -8 °F    
Average Humidity 28    
Maximum Humidity 35    
Minimum Humidity 21    
Precipitation  
Precipitation 0.00 in - - ()
Sea Level Pressure  
Sea Level Pressure 30.25 in    
Wind  
Wind Speed 13 mph (SW)    
Max Wind Speed 22 mph    
Max Gust Speed 30 mph    
Visibility 10 miles    
Events      
Averages and records for this station are not official NWS values.
T = Trace of Precipitation, MM = Missing Value Source: NWS Daily Summary

Daily Weather History Graph

Daily Weather History Graph

Search for Another Location

Airport or City:

Trip Planner

Search our weather history database for the weather conditions in past years. The results will help you decide how hot, cold, wet, or windy it might be!

Date:

Astronomy

Jan. 06, 2013 Rise Set
Actual Time 7:22 AM MST 5:04 PM MST
Civil Twilight 6:53 AM MST 5:33 PM MST
Nautical Twilight 6:20 AM MST 6:06 PM MST
Astronomical Twilight 5:49 AM MST 6:37 PM MST
Moon 1:42 AM MST (1/6) 12:31 PM MST (1/6)
Length of Visible Light 10h 40m
Length of Day
9h 42m
Waning Crescent, 32% of the Moon is Illuminated
Jan 6
Waning Crescent
Jan 11
New
Jan 18
First Quarter
Jan 26
Full
Feb 3
Last Quarter

Hourly Weather History & Observations

Time (MST) Temp. Windchill Dew Point Humidity Pressure Visibility Wind Dir Wind Speed Gust Speed Precip Events Conditions
12:07 AM 21.2 °F 12.6 °F -5.8 °F 30% 30.36 in 10.0 mi SSW 6.9 mph - N/A   Clear
12:47 AM 21.2 °F 12.6 °F -5.8 °F 30% 30.35 in 10.0 mi SW 6.9 mph - N/A   Clear
1:07 AM 21.2 °F 9.5 °F -5.8 °F 30% 30.35 in 10.0 mi SW 11.5 mph - N/A   Clear
1:27 AM 21.2 °F 10.9 °F -7.6 °F 28% 30.35 in 10.0 mi SW 9.2 mph - N/A   Clear
1:46 AM 21.2 °F 11.7 °F -7.6 °F 28% 30.35 in 10.0 mi SSW 8.1 mph - N/A   Clear
2:07 AM 21.2 °F 11.7 °F -7.6 °F 28% 30.34 in 10.0 mi SSW 8.1 mph - N/A   Clear
2:27 AM 21.2 °F 9.5 °F -7.6 °F 28% 30.35 in 10.0 mi SW 11.5 mph - N/A   Clear
3:07 AM 21.2 °F 8.3 °F -7.6 °F 28% 30.35 in 10.0 mi SW 13.8 mph - N/A   Clear
3:27 AM 21.2 °F 7.3 °F -7.6 °F 28% 30.34 in 10.0 mi SW 16.1 mph - N/A   Clear
3:47 AM 21.2 °F 8.3 °F -7.6 °F 28% 30.33 in 10.0 mi SW 13.8 mph - N/A   Clear
4:07 AM 21.2 °F 8.9 °F -7.6 °F 28% 30.33 in 10.0 mi SW 12.7 mph - N/A   Clear
4:47 AM 21.2 °F 8.9 °F -7.6 °F 28% 30.32 in 10.0 mi SW 12.7 mph - N/A   Clear
5:07 AM 19.4 °F 7.2 °F -7.6 °F 30% 30.32 in 10.0 mi SW 11.5 mph - N/A   Clear
5:27 AM 19.4 °F 6.0 °F -7.6 °F 30% 30.32 in 10.0 mi SW 13.8 mph - N/A   Clear
5:47 AM 19.4 °F 6.6 °F -7.6 °F 30% 30.32 in 10.0 mi SW 12.7 mph - N/A   Clear
6:07 AM 19.4 °F 5.5 °F -7.6 °F 30% 30.32 in 10.0 mi SW 15.0 mph - N/A   Clear
6:27 AM 19.4 °F 4.1 °F -7.6 °F 30% 30.32 in 10.0 mi SW 18.4 mph - N/A   Clear
6:46 AM 19.4 °F 4.5 °F -7.6 °F 30% 30.31 in 10.0 mi SW 17.3 mph - N/A   Clear
7:06 AM 19.4 °F 4.5 °F -7.6 °F 30% 30.32 in 10.0 mi SW 17.3 mph - N/A   Clear
7:27 AM 19.4 °F 5.0 °F -7.6 °F 30% 30.32 in 10.0 mi SW 16.1 mph - N/A   Clear
7:47 AM 17.6 °F 3.2 °F -5.8 °F 35% 30.32 in 10.0 mi SW 15.0 mph 20.7 mph N/A   Clear
8:07 AM 17.6 °F 2.2 °F -5.8 °F 35% 30.32 in 10.0 mi SW 17.3 mph - N/A   Clear
8:27 AM 19.4 °F 4.1 °F -7.6 °F 30% 30.32 in 10.0 mi SW 18.4 mph 24.2 mph N/A   Clear
8:47 AM 21.2 °F 6.8 °F -7.6 °F 28% 30.32 in 10.0 mi SW 17.3 mph 26.5 mph N/A   Clear
9:07 AM 23.0 °F 10.6 °F -9.4 °F 24% 30.33 in 10.0 mi SW 13.8 mph 24.2 mph N/A   Clear
9:27 AM 23.0 °F 9.2 °F -9.4 °F 24% 30.33 in 10.0 mi SW 17.3 mph 20.7 mph N/A   Clear
9:47 AM 24.8 °F 12.4 °F -9.4 °F 22% 30.33 in 10.0 mi SSW 15.0 mph 23.0 mph N/A   Clear
10:07 AM 26.6 °F 14.7 °F -9.4 °F 21% 30.33 in 10.0 mi SSW 15.0 mph 23.0 mph N/A   Clear
10:27 AM 26.6 °F 14.3 °F -9.4 °F 21% 30.32 in 10.0 mi SW 16.1 mph 24.2 mph N/A   Clear
10:47 AM 26.6 °F 14.3 °F -9.4 °F 21% 30.32 in 10.0 mi SW 16.1 mph 25.3 mph N/A   Clear
11:07 AM 26.6 °F 14.7 °F -9.4 °F 21% 30.31 in 10.0 mi SSW 15.0 mph 26.5 mph N/A   Clear
11:27 AM 26.6 °F 14.7 °F -7.6 °F 22% 30.29 in 10.0 mi SSW 15.0 mph 21.9 mph N/A   Clear
11:47 AM 28.4 °F 18.5 °F -7.6 °F 21% 30.28 in 10.0 mi SSW 11.5 mph 20.7 mph N/A   Clear
12:07 PM 28.4 °F 18.5 °F -7.6 °F 21% 30.27 in 10.0 mi SSW 11.5 mph 24.2 mph N/A   Clear
12:26 PM 26.6 °F 15.2 °F -9.4 °F 21% 30.26 in 10.0 mi SSW 13.8 mph 25.3 mph N/A   Clear
12:47 PM 26.6 °F 13.8 °F -7.6 °F 22% 30.24 in 10.0 mi SSW 17.3 mph 25.3 mph N/A   Clear
1:07 PM 26.6 °F 15.2 °F -7.6 °F 22% 30.24 in 10.0 mi SW 13.8 mph 21.9 mph N/A   Clear
1:27 PM 26.6 °F 15.2 °F -5.8 °F 24% 30.22 in 10.0 mi SSW 13.8 mph 23.0 mph N/A   Clear
1:47 PM 26.6 °F 15.7 °F -5.8 °F 24% 30.22 in 10.0 mi SSW 12.7 mph 23.0 mph N/A   Clear
2:07 PM 26.6 °F 14.3 °F -5.8 °F 24% 30.21 in 10.0 mi SSW 16.1 mph 24.2 mph N/A   Clear
2:27 PM 26.6 °F 14.7 °F -5.8 °F 24% 30.20 in 10.0 mi SSW 15.0 mph 26.5 mph N/A   Clear
2:47 PM 24.8 °F 12.9 °F -5.8 °F 26% 30.19 in 10.0 mi SSW 13.8 mph 21.9 mph N/A   Clear
3:07 PM 23.0 °F 10.6 °F -5.8 °F 28% 30.19 in 10.0 mi SSW 13.8 mph 21.9 mph N/A   Clear
3:27 PM 23.0 °F 12.4 °F -5.8 °F 28% 30.19 in 10.0 mi SW 10.4 mph 17.3 mph N/A   Clear
3:47 PM 21.2 °F 6.4 °F -7.6 °F 28% 30.18 in 10.0 mi SW 18.4 mph 26.5 mph N/A   Clear
4:07 PM 19.4 °F 7.2 °F -7.6 °F 30% 30.19 in 10.0 mi SSW 11.5 mph 25.3 mph N/A   Clear
4:27 PM 19.4 °F 5.5 °F -7.6 °F 30% 30.18 in 10.0 mi SW 15.0 mph 24.2 mph N/A   Clear
4:47 PM 19.4 °F 5.5 °F -9.4 °F 28% 30.18 in 10.0 mi SW 15.0 mph 25.3 mph N/A   Scattered Clouds
5:07 PM 19.4 °F 4.5 °F -9.4 °F 28% 30.17 in 10.0 mi SW 17.3 mph 24.2 mph N/A   Scattered Clouds
5:27 PM 19.4 °F 3.2 °F -9.4 °F 28% 30.17 in 10.0 mi SW 20.7 mph 27.6 mph N/A   Clear
5:47 PM 17.6 °F 0.5 °F -9.4 °F 30% 30.17 in 10.0 mi SW 21.9 mph 29.9 mph N/A   Clear
6:05 PM 17.6 °F 1.7 °F -9.4 °F 30% 30.16 in 10.0 mi SW 18.4 mph 27.6 mph N/A   Scattered Clouds
6:25 PM 17.6 °F 2.2 °F -9.4 °F 30% 30.15 in 10.0 mi SW 17.3 mph 26.5 mph N/A   Scattered Clouds
6:45 PM 17.6 °F 2.2 °F -9.4 °F 30% 30.15 in 10.0 mi SW 17.3 mph 24.2 mph N/A   Clear
7:05 PM 17.6 °F 3.7 °F -9.4 °F 30% 30.15 in 10.0 mi SW 13.8 mph 21.9 mph N/A   Clear
7:26 PM 17.6 °F 4.3 °F -9.4 °F 30% 30.15 in 10.0 mi SW 12.7 mph 19.6 mph N/A   Clear
7:47 PM 17.6 °F 2.2 °F -9.4 °F 30% 30.15 in 10.0 mi SW 17.3 mph 23.0 mph N/A   Clear
8:45 PM 17.6 °F 3.7 °F -7.6 °F 32% 30.15 in 10.0 mi SW 13.8 mph 21.9 mph N/A   Clear
9:03 PM 17.6 °F 3.7 °F -7.6 °F 32% 30.14 in 10.0 mi SW 13.8 mph - N/A   Scattered Clouds
9:25 PM 15.8 °F 1.4 °F -7.6 °F 35% 30.13 in 10.0 mi SW 13.8 mph 18.4 mph N/A   Scattered Clouds
9:46 PM 15.8 °F -0.2 °F -7.6 °F 35% 30.13 in 10.0 mi SW 17.3 mph 23.0 mph N/A   Clear
10:04 PM 15.8 °F 0.3 °F -7.6 °F 35% 30.13 in 10.0 mi SW 16.1 mph - N/A   Clear
10:45 PM 15.8 °F -0.2 °F -7.6 °F 35% 30.13 in 10.0 mi SW 17.3 mph 21.9 mph N/A   Clear
11:06 PM 15.8 °F 0.3 °F -7.6 °F 35% 30.12 in 10.0 mi SW 16.1 mph - N/A   Mostly Cloudy
11:25 PM 15.8 °F 0.9 °F -7.6 °F 35% 30.12 in 10.0 mi SW 15.0 mph - N/A   Scattered Clouds